Terminal Aerodrome Forecast
Issued by NWS

Home | Current Version | Previous Version | Text Only | Print | Product List | Glossary On
Versions: 1 2 3 4 5 6 7 8 9 10 11 12 13 14 15 16 17
343
FTPA31 PHFO 290520
TAFHNY
TAF
PHNY 290520Z 2906/3006 05010KT P6SM FEW025
      TEMPO 2906/2907 04015G20KT
     FM292000 VRB06KT P6SM BKN025
      TEMPO 2920/2924 SCT025 BKN035
     FM300300 04010KT P6SM SCT025 BKN040=

USA.gov is the U.S. government's official web portal to all federal, state and local government web resources and services.